When you browse on this site, cookies collect data to enhance your experience and personalize the content and advertising you see.
Visit our Privacy Policy to learn more. By continuing to use the site, you agree to this use of cookies and data.
  • In Österreich
  • Länderverzeichnis
  • Für 7 Tage
  • Wassertemperatur
  • Satellitenkarten
  • Wetterkarte
  • News
  • Widgets
  • user-avatar
    Anmelden

    Stündliche Wetter Barisal

    Heute, 21 April, Sonntag

    Zeit Temperatur Niederschläge Wind Luftdruck Luftfeuchtigkeit
    00:00 +30°C° 0 mm 1 m/S 754 mmHg 51%
    01:00 +30°C° 0 mm 2 m/S 754 mmHg 52%
    02:00 +29°C° 0 mm 2 m/S 753 mmHg 53%
    03:00 +29°C° 0 mm 2 m/S 753 mmHg 54%
    04:00 +29°C° 0 mm 2 m/S 753 mmHg 57%
    05:00 +29°C° 0 mm 2 m/S 753 mmHg 60%
    06:00 +29°C° 0 mm 1 m/S 754 mmHg 60%
    07:00 +31°C° 0 mm 2 m/S 754 mmHg 51%
    08:00 +35°C° 0 mm 2 m/S 754 mmHg 42%
    09:00 +37°C° 0 mm 2 m/S 755 mmHg 34%
    10:00 +39°C° 0 mm 3 m/S 754 mmHg 29%
    11:00 +40°C° 0 mm 3 m/S 754 mmHg 25%
    12:00 +42°C° 0 mm 3 m/S 754 mmHg 21%
    13:00 +42°C° 0 mm 3 m/S 753 mmHg 23%
    14:00 +40°C° 0 mm 3 m/S 753 mmHg 25%
    15:00 +40°C° 0 mm 4 m/S 752 mmHg 28%
    16:00 +38°C° 0 mm 4 m/S 752 mmHg 31%
    17:00 +37°C° 0 mm 4 m/S 752 mmHg 34%
    18:00 +36°C° 0 mm 5 m/S 751 mmHg 37%
    19:00 +35°C° 0 mm 4 m/S 752 mmHg 44%
    20:00 +34°C° 0 mm 4 m/S 752 mmHg 51%
    21:00 +33°C° 0 mm 4 m/S 753 mmHg 57%
    22:00 +33°C° 0 mm 4 m/S 753 mmHg 60%
    23:00 +32°C° 0 mm 4 m/S 753 mmHg 62%

    Morgen, 22 April, Montag

    Zeit Temperatur Niederschläge Wind Luftdruck Luftfeuchtigkeit
    00:00 +32°C° 0 mm 4 m/S 753 mmHg 64%
    01:00 +31°C° 0 mm 3 m/S 753 mmHg 64%
    02:00 +30°C° 0 mm 2 m/S 752 mmHg 64%
    03:00 +30°C° 0 mm 2 m/S 752 mmHg 63%
    04:00 +30°C° 0 mm 1 m/S 752 mmHg 63%
    05:00 +29°C° 0 mm 1 m/S 753 mmHg 62%
    06:00 +29°C° 0 mm 1 m/S 753 mmHg 61%
    07:00 +31°C° 0 mm 1 m/S 754 mmHg 52%
    08:00 +35°C° 0 mm 2 m/S 754 mmHg 43%
    09:00 +37°C° 0 mm 2 m/S 755 mmHg 34%
    10:00 +37°C° 0 mm 1 m/S 755 mmHg 31%
    11:00 +40°C° 0 mm 1 m/S 755 mmHg 27%
    12:00 +39°C° 0 mm 0 m/S 754 mmHg 24%
    13:00 +41°C° 0 mm 1 m/S 754 mmHg 24%
    14:00 +41°C° 0 mm 2 m/S 753 mmHg 25%
    15:00 +42°C° 0 mm 3 m/S 752 mmHg 25%
    16:00 +40°C° 0 mm 4 m/S 752 mmHg 30%
    17:00 +38°C° 0 mm 4 m/S 752 mmHg 35%
    18:00 +36°C° 0 mm 5 m/S 752 mmHg 40%
    19:00 +35°C° 0 mm 4 m/S 753 mmHg 44%
    20:00 +34°C° 0 mm 4 m/S 753 mmHg 48%
    21:00 +34°C° 0 mm 3 m/S 754 mmHg 52%
    22:00 +33°C° 0 mm 3 m/S 754 mmHg 55%
    23:00 +31°C° 0 mm 3 m/S 754 mmHg 58%

    übermorgen, 23 April, Dienstag

    Zeit Temperatur Niederschläge Wind Luftdruck Luftfeuchtigkeit
    00:00 +31°C° 0 mm 2 m/S 754 mmHg 61%
    01:00 +31°C° 0 mm 2 m/S 754 mmHg 61%
    02:00 +30°C° 0 mm 3 m/S 753 mmHg 61%
    03:00 +30°C° 0 mm 3 m/S 753 mmHg 62%
    04:00 +30°C° 0 mm 2 m/S 753 mmHg 64%
    05:00 +29°C° 0 mm 2 m/S 754 mmHg 66%
    06:00 +29°C° 0 mm 2 m/S 754 mmHg 68%
    07:00 +31°C° 0 mm 2 m/S 755 mmHg 59%
    08:00 +33°C° 0 mm 1 m/S 755 mmHg 51%
    09:00 +36°C° 0 mm 1 m/S 756 mmHg 43%
    10:00 +37°C° 0 mm 1 m/S 756 mmHg 37%
    11:00 +40°C° 0 mm 2 m/S 755 mmHg 32%
    12:00 +42°C° 0 mm 3 m/S 755 mmHg 27%
    13:00 +42°C° 0 mm 3 m/S 754 mmHg 27%
    14:00 +42°C° 0 mm 3 m/S 754 mmHg 27%
    15:00 +42°C° 0 mm 3 m/S 753 mmHg 27%
    16:00 +40°C° 0.7 mm 3 m/S 753 mmHg 31%
    17:00 +38°C° 0.7 mm 3 m/S 753 mmHg 36%
    18:00 +37°C° 0.7 mm 3 m/S 753 mmHg 40%
    19:00 +36°C° 0 mm 3 m/S 754 mmHg 46%
    20:00 +35°C° 0 mm 3 m/S 754 mmHg 51%
    21:00 +33°C° 0 mm 3 m/S 755 mmHg 56%
    22:00 +33°C° 0 mm 3 m/S 755 mmHg 59%
    23:00 +33°C° 0 mm 3 m/S 755 mmHg 62%

    24 April, Mittwoch

    Zeit Temperatur Niederschläge Wind Luftdruck Luftfeuchtigkeit
    00:00 +31°C° 0 mm 3 m/S 755 mmHg 65%
    01:00 +31°C° 0 mm 3 m/S 755 mmHg 68%
    02:00 +30°C° 0 mm 2 m/S 755 mmHg 70%
    03:00 +30°C° 0 mm 2 m/S 754 mmHg 73%
    04:00 +30°C° 0 mm 2 m/S 755 mmHg 75%
    05:00 +30°C° 0 mm 1 m/S 755 mmHg 76%
    06:00 +29°C° 0 mm 1 m/S 755 mmHg 78%
    07:00 +31°C° 0 mm 1 m/S 756 mmHg 68%
    08:00 +33°C° 0 mm 1 m/S 757 mmHg 58%
    09:00 +35°C° 0 mm 1 m/S 757 mmHg 48%
    10:00 +37°C° 0 mm 1 m/S 757 mmHg 42%
    11:00 +40°C° 0 mm 2 m/S 757 mmHg 36%
    12:00 +41°C° 0 mm 2 m/S 756 mmHg 30%
    13:00 +42°C° 0 mm 3 m/S 755 mmHg 30%
    14:00 +43°C° 0 mm 3 m/S 755 mmHg 29%
    15:00 +43°C° 0 mm 4 m/S 754 mmHg 28%
    16:00 +41°C° 0.2 mm 4 m/S 754 mmHg 32%
    17:00 +40°C° 0.2 mm 4 m/S 753 mmHg 36%
    18:00 +37°C° 0.2 mm 5 m/S 753 mmHg 40%
    19:00 +36°C° 0.1 mm 5 m/S 754 mmHg 46%
    20:00 +34°C° 0.1 mm 4 m/S 754 mmHg 52%
    21:00 +33°C° 0.1 mm 4 m/S 755 mmHg 59%
    22:00 +33°C° 0 mm 4 m/S 755 mmHg 60%
    23:00 +33°C° 0 mm 4 m/S 755 mmHg 61%

    25 April, Donnerstag

    Zeit Temperatur Niederschläge Wind Luftdruck Luftfeuchtigkeit
    00:00 +33°C° 0 mm 3 m/S 755 mmHg 62%
    01:00 +31°C° 0 mm 3 m/S 754 mmHg 63%
    02:00 +31°C° 0 mm 3 m/S 754 mmHg 64%
    03:00 +30°C° 0 mm 3 m/S 754 mmHg 66%
    04:00 +30°C° 0 mm 2 m/S 754 mmHg 69%
    05:00 +30°C° 0 mm 1 m/S 754 mmHg 72%
    06:00 +29°C° 0 mm 1 m/S 755 mmHg 76%
    07:00 +31°C° 0 mm 1 m/S 756 mmHg 66%
    08:00 +34°C° 0 mm 2 m/S 756 mmHg 56%
    09:00 +36°C° 0 mm 2 m/S 757 mmHg 46%
    10:00 +38°C° 0 mm 3 m/S 757 mmHg 40%
    11:00 +40°C° 0 mm 3 m/S 756 mmHg 34%
    12:00 +43°C° 0 mm 3 m/S 756 mmHg 28%
    13:00 +43°C° 0 mm 4 m/S 755 mmHg 27%
    14:00 +43°C° 0 mm 4 m/S 754 mmHg 26%
    15:00 +43°C° 0 mm 5 m/S 753 mmHg 26%
    16:00 +42°C° 0 mm 5 m/S 753 mmHg 29%
    17:00 +40°C° 0 mm 5 m/S 753 mmHg 32%
    18:00 +39°C° 0 mm 5 m/S 753 mmHg 36%
    19:00 +36°C° 0 mm 5 m/S 753 mmHg 43%
    20:00 +35°C° 0 mm 4 m/S 754 mmHg 50%
    21:00 +33°C° 0 mm 4 m/S 754 mmHg 56%
    22:00 +33°C° 0 mm 4 m/S 754 mmHg 59%
    23:00 +31°C° 0 mm 3 m/S 754 mmHg 62%

    26 April, Freitag

    Zeit Temperatur Niederschläge Wind Luftdruck Luftfeuchtigkeit
    00:00 +31°C° 0 mm 3 m/S 753 mmHg 65%
    01:00 +30°C° 0 mm 3 m/S 753 mmHg 67%
    02:00 +30°C° 0 mm 3 m/S 753 mmHg 69%
    03:00 +30°C° 0 mm 3 m/S 752 mmHg 71%
    04:00 +30°C° 0 mm 3 m/S 753 mmHg 73%
    05:00 +30°C° 0 mm 2 m/S 753 mmHg 75%
    06:00 +29°C° 0 mm 2 m/S 754 mmHg 78%
    07:00 +33°C° 0 mm 3 m/S 754 mmHg 67%
    08:00 +35°C° 0 mm 3 m/S 755 mmHg 56%
    09:00 +37°C° 0 mm 4 m/S 755 mmHg 44%
    10:00 +40°C° 0 mm 4 m/S 755 mmHg 38%
    11:00 +42°C° 0 mm 5 m/S 755 mmHg 32%
    12:00 +43°C° 0 mm 5 m/S 754 mmHg 25%
    13:00 +44°C° 0 mm 6 m/S 753 mmHg 26%
    14:00 +44°C° 0 mm 6 m/S 753 mmHg 26%
    15:00 +44°C° 0 mm 6 m/S 752 mmHg 26%
    16:00 +41°C° 0 mm 6 m/S 752 mmHg 35%
    17:00 +39°C° 0 mm 6 m/S 752 mmHg 43%
    18:00 +36°C° 0 mm 6 m/S 752 mmHg 51%
    19:00 +34°C° 0 mm 6 m/S 753 mmHg 59%
    20:00 +33°C° 0 mm 6 m/S 753 mmHg 66%
    21:00 +32°C° 0 mm 5 m/S 754 mmHg 74%
    22:00 +32°C° 0 mm 5 m/S 753 mmHg 75%
    23:00 +32°C° 0 mm 5 m/S 753 mmHg 77%
    Mehr zeigen